Regional Weather Roundup
Issued by NWS

Home | Current Version | Previous Version | Graphics & Text | Print | Product List | Glossary On
Versions: 1 2 3 4 5 6 7 8 9 10 11 12 13 14 15 16 17 18 19 20 21 22 23 24 25 26 27 28 29 30 31 32 33 34 35 36 37 38 39 40 41 42 43 44 45 46 47 48 49 50
368
ASUS44 KLIX 011510
RWRLA
LOUISIANA WEATHER ROUNDUP
NATIONAL WEATHER SERVICE NEW ORLEANS LA
1000 AM CDT MON SEP 01 2014

NOTE: "FAIR" INDICATES FEW OR NO CLOUDS BELOW 12,000 FEET WITH NO
      SIGNIFICANT WEATHER AND/OR OBSTRUCTIONS TO VISIBILITY.
      SKY/WX - SKY CONDITION AND SIGNIFICANT WEATHER.
      TMP - AIR TEMPERATURE.    DP   - DEWPOINT TEMPERATURE.
      RH  - RELATIVE HUMIDITY.  PRES - PRESSURE.
      HX  - HEAT INDEX.         WCI  - WIND CHILL INDEX.

*  THESE STATIONS ARE NOT NWS OR FAA STATIONS AND ARE NOT UNDER
   NWS QUALITY CONTROL.

LAZ040-048-061>063-065-066-069-011600-
SOUTHEAST LOUISIANA

CITY           SKY/WX    TMP DP  RH WIND       PRES   REMARKS
N.O. AUDUBON     N/A     81  74  77 MISG        N/A
N.O. INTL ARPT PTSUNNY   81  75  82 SE5       30.06R
N.O. LAKEFRONT MOSUNNY   87  75  67 SE13      30.06R HX  96
N.O. DOWNTOWN* PTSUNNY   86  73  66 SE7       30.07R
SLIDELL        MOSUNNY   86  75  69 S14       30.07R HX  95
BATON ROUGE    PTSUNNY   86  76  71 SE10      30.04S HX  96
BOOTHVILLE     MOSUNNY   83  77  82 S13       30.07R
BELLE CHASSE   MOSUNNY   87  74  64 SE10      30.05S HX  95
BOGALUSA*      FAIR      88  75  67 S8        30.09R HX  97
GALLIANO*      NOT AVBL
NEW ROADS*     FAIR      85  77  77 SE10      30.04R HX  95
GONZALES*      PTSUNNY   86  80  82 SE7       30.03S HX 100
HAMMOND*       MOSUNNY   88  75  66 SE12      30.08R HX  97
HOUMA*         MOSUNNY   75  73  94 E7        30.05R
PORT FOURCHON* SUNNY     84  77  79 SE16      30.06S

$$

LAZ041-044-053-054-011600-
SOUTHWEST LOUISIANA

CITY           SKY/WX    TMP DP  RH WIND       PRES   REMARKS
LAKE CHARLES   SUNNY     86  77  74 SE14      29.99S HX  97
LAFAYETTE      PTSUNNY   84  77  79 SE9       30.02S
PATTERSON      MOSUNNY   84  79  84 SE8       30.06R HX  96
SALT POINT       N/A     88  79  74 SE8       30.02R HX 103
NEW IBERIA     MOSUNNY   86  77  74 SE10      30.03R HX  97
CHENAULT AIRPK PTSUNNY   86  77  74 SE16      30.01R HX  97

$$

LAZ027-028-011600-
CENTRAL LOUISIANA

CITY           SKY/WX    TMP DP  RH WIND       PRES   REMARKS
FORT POLK      CLOUDY    82  76  81 S12       30.01S
ALEXANDRIA INT CLOUDY    79  78  97 SE8       30.01S
ALEXANDRIA     PTSUNNY   85  77  77 S9        30.03S HX  95

$$

LAZ001-002-011600-
NORTHWEST LOUISIANA

CITY           SKY/WX    TMP DP  RH WIND       PRES   REMARKS
SHREVEPORT     PTSUNNY   84  75  74 S12       29.99S
BARKSDALE AFB  PTSUNNY   85  74  71 S13       29.99S
DTN SHREVEPORT CLOUDY    84  74  71 S12       29.99S

$$

LAZ014-016-011600-
NORTHEAST LOUISIANA

CITY           SKY/WX    TMP DP  RH WIND       PRES   REMARKS
MONROE         CLOUDY    81  75  83 S9        30.04S
TALLULAH       MOSUNNY   84  76  76 S14       30.05S

$$




USA.gov is the U.S. government's official web portal to all federal, state and local government web resources and services.